TimeCDT,TemperatureF,Dew PointF,Humidity,Sea Level PressureIn,VisibilityMPH,Wind Direction,Wind SpeedMPH,Gust SpeedMPH,PrecipitationIn,Events,Conditions,WindDirDegrees,DateUTC
12:15 AM,70.9,56.3,60,29.74,10.0,SE,15.0,-,N/A,,Clear,140,2013-05-19 05:15:00
12:35 AM,69.3,56.3,63,29.73,10.0,SSE,12.7,16.1,N/A,,Clear,150,2013-05-19 05:35:00
1:15 AM,67.1,57.2,70,29.73,10.0,SSE,10.4,-,N/A,,Clear,150,2013-05-19 06:15:00
1:35 AM,64.4,56.5,75,29.73,10.0,SSE,8.1,-,N/A,,Clear,150,2013-05-19 06:35:00
1:55 AM,61.9,55.9,81,29.72,10.0,South,6.9,-,N/A,,Clear,170,2013-05-19 06:55:00
2:15 AM,60.3,55.4,84,29.72,7.0,WSW,3.5,-,N/A,,Clear,250,2013-05-19 07:15:00
2:55 AM,58.8,55.4,88,29.70,7.0,South,6.9,-,N/A,,Clear,190,2013-05-19 07:55:00
3:15 AM,58.1,54.7,88,29.70,7.0,SSW,10.4,-,N/A,,Clear,200,2013-05-19 08:15:00
3:35 AM,59.0,55.8,89,29.70,7.0,SW,9.2,-,N/A,,Clear,230,2013-05-19 08:35:00
3:55 AM,60.1,56.3,87,29.69,7.0,SW,9.2,-,N/A,,Clear,230,2013-05-19 08:55:00
4:15 AM,59.7,54.3,82,29.69,10.0,WSW,9.2,-,N/A,,Clear,250,2013-05-19 09:15:00
4:55 AM,61.0,50.4,68,29.70,10.0,West,8.1,-,N/A,,Clear,270,2013-05-19 09:55:00
5:15 AM,61.0,45.9,58,29.70,10.0,West,9.2,-,N/A,,Clear,270,2013-05-19 10:15:00
5:35 AM,58.5,42.6,56,29.70,10.0,West,6.9,-,N/A,,Clear,270,2013-05-19 10:35:00
5:55 AM,59.9,40.1,48,29.71,10.0,West,10.4,-,N/A,,Clear,270,2013-05-19 10:55:00
6:15 AM,59.9,37.6,44,29.72,10.0,WNW,9.2,-,N/A,,Clear,290,2013-05-19 11:15:00
6:35 AM,59.2,40.5,50,29.71,10.0,NW,5.8,-,N/A,,Clear,310,2013-05-19 11:35:00
6:55 AM,57.7,38.7,49,29.72,10.0,West,9.2,-,N/A,,Clear,270,2013-05-19 11:55:00
7:15 AM,60.1,34.5,38,29.73,10.0,West,10.4,-,N/A,,Clear,280,2013-05-19 12:15:00
7:35 AM,59.9,33.3,37,29.73,10.0,West,8.1,-,N/A,,Clear,280,2013-05-19 12:35:00
7:55 AM,63.1,32.2,31,29.73,10.0,West,8.1,-,N/A,,Clear,280,2013-05-19 12:55:00
8:15 AM,65.5,31.6,28,29.73,10.0,West,9.2,-,N/A,,Clear,280,2013-05-19 13:15:00
8:35 AM,68.0,31.8,26,29.74,10.0,WNW,10.4,-,N/A,,Clear,290,2013-05-19 13:35:00
8:55 AM,70.9,32.0,24,29.74,10.0,WNW,11.5,-,N/A,,Clear,290,2013-05-19 13:55:00
9:15 AM,71.8,31.8,23,29.75,10.0,NW,15.0,21.9,N/A,,Clear,320,2013-05-19 14:15:00
9:55 AM,71.8,44.2,37,29.75,10.0,NW,15.0,-,N/A,,Clear,320,2013-05-19 14:55:00
10:15 AM,73.2,46.6,39,29.75,10.0,NW,12.7,-,N/A,,Clear,310,2013-05-19 15:15:00
10:35 AM,74.5,47.3,38,29.75,10.0,WNW,12.7,-,N/A,,Clear,300,2013-05-19 15:35:00
10:55 AM,74.1,47.8,39,29.75,10.0,NW,11.5,18.4,N/A,,Clear,320,2013-05-19 15:55:00
11:15 AM,75.6,48.4,38,29.75,10.0,NW,12.7,18.4,N/A,,Clear,320,2013-05-19 16:15:00
11:35 AM,75.9,46.6,35,29.75,10.0,WNW,12.7,17.3,N/A,,Clear,290,2013-05-19 16:35:00
11:55 AM,76.5,45.3,33,29.75,10.0,West,12.7,18.4,N/A,,Clear,270,2013-05-19 16:55:00
12:15 PM,78.1,44.2,30,29.75,10.0,West,10.4,19.6,N/A,,Clear,270,2013-05-19 17:15:00
12:35 PM,78.8,43.7,29,29.74,10.0,NW,10.4,18.4,N/A,,Clear,310,2013-05-19 17:35:00
12:55 PM,79.7,41.5,26,29.74,10.0,WNW,18.4,24.2,N/A,,Clear,300,2013-05-19 17:55:00
1:15 PM,80.4,40.3,24,29.74,10.0,WNW,16.1,23.0,N/A,,Clear,300,2013-05-19 18:15:00
1:35 PM,80.8,39.2,23,29.74,10.0,West,13.8,23.0,N/A,,Clear,280,2013-05-19 18:35:00
2:15 PM,81.9,38.1,21,29.72,10.0,WNW,13.8,21.9,N/A,,Scattered Clouds,290,2013-05-19 19:15:00
2:55 PM,82.6,36.5,19,29.72,10.0,WNW,12.7,24.2,N/A,,Scattered Clouds,300,2013-05-19 19:55:00
3:15 PM,83.5,37.0,19,29.72,10.0,West,20.7,24.2,N/A,,Scattered Clouds,270,2013-05-19 20:15:00
3:35 PM,83.8,36.0,18,29.71,10.0,West,11.5,25.3,N/A,,Scattered Clouds,270,2013-05-19 20:35:00
3:55 PM,84.2,35.1,17,29.71,10.0,WNW,18.4,34.5,N/A,,Scattered Clouds,290,2013-05-19 20:55:00
4:15 PM,84.6,33.4,16,29.70,10.0,West,13.8,20.7,N/A,,Scattered Clouds,280,2013-05-19 21:15:00
4:35 PM,83.8,32.4,16,29.70,10.0,WNW,12.7,20.7,N/A,,Scattered Clouds,290,2013-05-19 21:35:00
4:55 PM,84.6,31.1,15,29.69,10.0,West,15.0,20.7,N/A,,Scattered Clouds,260,2013-05-19 21:55:00
5:15 PM,84.7,30.2,14,29.69,10.0,West,15.0,20.7,N/A,,Clear,270,2013-05-19 22:15:00
5:35 PM,83.5,30.9,15,29.68,10.0,West,12.7,20.7,N/A,,Scattered Clouds,260,2013-05-19 22:35:00
5:55 PM,82.8,31.3,16,29.68,10.0,SW,11.5,16.1,N/A,,Scattered Clouds,230,2013-05-19 22:55:00
6:15 PM,84.4,29.8,14,29.67,10.0,West,16.1,-,N/A,,Clear,270,2013-05-19 23:15:00
6:35 PM,84.4,27.3,13,29.67,10.0,WSW,10.4,-,N/A,,Clear,250,2013-05-19 23:35:00
6:55 PM,84.4,25.3,12,29.67,10.0,WSW,15.0,20.7,N/A,,Clear,240,2013-05-19 23:55:00
7:15 PM,81.3,25.0,13,29.67,10.0,WSW,11.5,-,N/A,,Clear,240,2013-05-20 00:15:00
7:35 PM,79.5,28.2,15,29.68,10.0,WSW,5.8,-,N/A,,Clear,240,2013-05-20 00:35:00
7:55 PM,76.3,31.5,19,29.68,10.0,SW,6.9,-,N/A,,Clear,230,2013-05-20 00:55:00
8:15 PM,75.4,31.1,20,29.69,10.0,WNW,4.6,-,N/A,,Clear,290,2013-05-20 01:15:00
8:35 PM,80.8,23.4,12,29.69,10.0,SW,17.3,32.2,N/A,,Scattered Clouds,220,2013-05-20 01:35:00
8:55 PM,77.0,23.4,14,29.70,10.0,WSW,9.2,-,N/A,,Clear,250,2013-05-20 01:55:00
9:15 PM,75.9,32.7,21,29.73,10.0,NNW,23.0,27.6,N/A,,Clear,340,2013-05-20 02:15:00
9:35 PM,73.4,33.6,23,29.73,10.0,NNE,11.5,20.7,N/A,,Clear,20,2013-05-20 02:35:00
9:55 PM,72.1,32.9,24,29.74,10.0,NNE,8.1,-,N/A,,Clear,20,2013-05-20 02:55:00
10:15 PM,69.3,34.0,27,29.76,10.0,NE,11.5,-,N/A,,Clear,40,2013-05-20 03:15:00
10:35 PM,65.5,34.7,32,29.76,10.0,East,8.1,-,N/A,,Clear,90,2013-05-20 03:35:00
11:15 PM,63.9,34.9,34,29.77,10.0,ESE,8.1,-,N/A,,Clear,110,2013-05-20 04:15:00
11:35 PM,62.2,34.9,36,29.76,10.0,SE,5.8,-,N/A,,Clear,130,2013-05-20 04:35:00
11:55 PM,63.5,34.7,34,29.76,10.0,ESE,3.5,-,N/A,,Clear,120,2013-05-20 04:55:00